Total_Precipitation_Accumulation
0.00 0.00 0.00 0.00 0.00 0.00 0.00 0.00 0.00 0.00 0.00 0.01 0.01 0.03 0.05 0.03 0.00 0.00 0.00 0.00 0.00 0.00 0.03 0.09 0.06 0.02 0.00 0.01 0.10 0.01 0.01 0.08
0.00 0.00 0.00 0.00 0.00 0.00 0.00 0.00 0.00 0.00 0.00 0.00 0.00 0.01 0.02 0.01 0.00 0.00 0.00 0.00 0.00 0.00 0.08 0.16 0.21 0.21 0.06 0.03 0.09 0.08 0.04 0.07
0.00 0.00 0.00 0.00 0.00 0.00 0.00 0.00 0.00 0.00 0.00 0.01 0.00 0.00 0.00 0.00 0.00 0.00 0.00 0.00 0.00 0.08 0.19 0.24 0.22 0.23 0.13 0.04 0.07 0.06 0.07 0.02
0.00 0.00 0.00 0.00 0.00 0.00 0.00 0.00 0.00 0.00 0.00 0.00 0.01 0.01 0.01 0.01 0.00 0.03 0.01 0.05 0.09 0.12 0.09 0.14 0.11 0.07 0.06 0.07 0.05 0.01 0.03 0.01
0.00 0.00 0.00 0.00 0.00 0.00 0.00 0.00 0.00 0.00 0.00 0.00 0.00 0.01 0.03 0.06 0.05 0.02 0.05 0.12 0.10 0.04 0.02 0.02 0.06 0.03 0.04 0.14 0.04 0.01 0.01 0.00
0.00 0.00 0.00 0.00 0.00 0.00 0.00 0.00 0.00 0.00 0.00 0.00 0.00 0.01 0.02 0.03 0.01 0.03 0.04 0.02 0.05 0.02 0.00 0.06 0.07 0.02 0.01 0.02 0.02 0.02 0.03 0.08
0.00 0.00 0.00 0.00 0.00 0.00 0.00 0.00 0.00 0.00 0.00 0.00 0.00 0.00 0.00 0.00 0.01 0.04 0.05 0.07 0.07 0.01 0.02 0.01 0.03 0.08 0.08 0.03 0.01 0.01 0.02 0.06
0.00 0.00 0.00 0.00 0.00 0.00 0.00 0.00 0.00 0.00 0.00 0.00 0.00 0.00 0.01 0.00 0.00 0.03 0.11 0.09 0.04 0.04 0.11 0.09 0.24 0.47 0.44 0.26 0.09 0.01 0.02 0.02
0.00 0.00 0.00 0.00 0.00 0.00 0.00 0.00 0.00 0.00 0.00 0.00 0.00 0.01 0.01 0.00 0.00 0.01 0.06 0.05 0.08 0.17 0.27 0.20 0.17 0.19 0.41 0.17 0.04 0.01 0.03 0.03
0.00 0.00 0.00 0.00 0.00 0.00 0.00 0.00 0.00 0.00 0.00 0.00 0.00 0.01 0.00 0.01 0.00 0.00 0.03 0.13 0.22 0.32 0.41 0.19 0.19 0.14 0.17 0.09 0.01 0.01 0.01 0.02
0.00 0.00 0.02 0.04 0.07 0.03 0.01 0.00 0.00 0.00 0.01 0.01 0.01 0.01 0.02 0.01 0.01 0.01 0.02 0.07 0.15 0.30 0.47 0.42 0.28 0.16 0.17 0.15 0.04 0.01 0.03 0.02
0.00 0.01 0.03 0.07 0.10 0.13 0.12 0.09 0.05 0.02 0.01 0.01 0.01 0.03 0.05 0.05 0.03 0.02 0.02 0.07 0.12 0.12 0.27 0.31 0.37 0.32 0.27 0.29 0.13 0.04 0.05 0.03
0.00 0.00 0.00 0.07 0.07 0.09 0.07 0.04 0.04 0.03 0.05 0.02 0.02 0.05 0.14 0.18 0.18 0.16 0.11 0.08 0.14 0.22 0.21 0.16 0.14 0.24 0.38 0.34 0.23 0.08 0.04 0.05
0.00 0.00 0.00 0.01 0.02 0.02 0.03 0.01 0.01 0.01 0.06 0.02 0.02 0.05 0.09 0.14 0.15 0.21 0.23 0.26 0.15 0.14 0.14 0.18 0.09 0.16 0.23 0.15 0.16 0.20 0.08 0.01
0.00 0.00 0.00 0.00 0.01 0.04 0.02 0.00 0.01 0.00 0.01 0.01 0.02 0.05 0.12 0.12 0.15 0.16 0.21 0.25 0.20 0.15 0.09 0.13 0.12 0.10 0.12 0.06 0.04 0.11 0.07 0.04
0.00 0.00 0.00 0.00 0.00 0.01 0.00 0.00 0.00 0.00 0.00 0.01 0.05 0.08 0.16 0.16 0.16 0.16 0.14 0.16 0.17 0.12 0.11 0.15 0.11 0.10 0.11 0.04 0.00 0.00 0.01 0.02
0.00 0.00 0.00 0.00 0.00 0.00 0.01 0.00 0.00 0.00 0.00 0.02 0.03 0.04 0.07 0.10 0.12 0.16 0.14 0.12 0.13 0.17 0.17 0.24 0.15 0.08 0.04 0.03 0.01 0.00 0.00 0.00
0.00 0.00 0.00 0.00 0.00 0.00 0.00 0.00 0.01 0.01 0.01 0.04 0.08 0.06 0.06 0.09 0.10 0.13 0.13 0.13 0.12 0.20 0.25 0.24 0.25 0.17 0.10 0.06 0.02 0.02 0.00 0.00
0.00 0.00 0.00 0.00 0.00 0.00 0.01 0.02 0.02 0.06 0.06 0.04 0.07 0.08 0.06 0.11 0.12 0.09 0.10 0.12 0.11 0.18 0.24 0.31 0.29 0.25 0.16 0.11 0.08 0.05 0.01 0.00
0.00 0.00 0.00 0.00 0.00 0.00 0.00 0.01 0.03 0.05 0.08 0.04 0.04 0.03 0.03 0.07 0.11 0.10 0.09 0.15 0.14 0.15 0.17 0.25 0.35 0.33 0.33 0.29 0.20 0.15 0.09 0.04